Regional Weather Roundup
Issued by NWS State College, PA

Home | Current Version | Previous Version | Graphics & Text | Print | Product List | Glossary On
Versions: 1 2 3 4 5 6 7 8 9 10 11 12 13 14 15 16 17 18 19 20 21 22 23 24 25 26 27 28 29 30 31 32 33 34 35 36 37 38 39 40 41 42 43 44 45 46 47 48 49 50
000
ASUS41 KCTP 271710
RWRCTP

REGIONAL WEATHER ROUNDUP
NATIONAL WEATHER SERVICE STATE COLLEGE PA
1200 PM EST TUE JAN 27 2015

Note: "fair" indicates few or no clouds below 12,000 feet with no
significant weather and/or obstructions to visibility.

* = STATION THAT DOES NOT REPORT PRECIPITATION /E.G. RAIN...SNOW...ETC/
    THUNDER OR FOG.

PAZ002>004-007>009-013>016-020>023-029>032-271800-
WESTERN PENNSYLVANIA

CITY           SKY/WX    TMP DP  RH WIND       PRES   REMARKS
ERIE           LGT SNOW  20  14  77 N10       30.02S WCI   9
MEADVILLE      CLOUDY    20  12  71 N13       29.93S WCI   7
FRANKLIN*      CLOUDY    19  10  68 NW6       29.92S WCI  11
NEW CASTLE     FLURRIES  19  13  77 NW12      29.97S WCI   7
BEAVER COUNTY  LGT SNOW  21  16  79 N9        29.94S WCI  11
BUTLER*        CLOUDY    21  12  68 W6        29.93F WCI  14
PITTSBURGH INT FLURRIES  21  15  78 NW12      29.93S WCI   9
PITTSBURGH     CLOUDY    21  13  71 NW9       29.91S WCI  11
INDIANA*       CLOUDY    21  18  86 NW7       29.92R HAZE    WCI  13
LATROBE        FLURRIES  23  18  80 NW8       29.93S WCI  14
WASHINGTON CO* CLOUDY    21  14  73 MISG      29.95S
$$

PAZ004>006-010>012-017>019-024>028-033>037-041-042-045-046-049>053-271800-
CENTRAL PENNSYLVANIA

CITY           SKY/WX    TMP DP  RH WIND       PRES   REMARKS
BRADFORD       MIX PCPN  17   9  70 NW15      29.82S WCI   2
DUBOIS         SNOW      18  13  80 N10       29.83S VSB 1/2 WCI   6
CLEARFIELD     LGT SNOW  20  14  77 NW5       29.84F WCI  13
JOHNSTOWN      CLOUDY    18  14  84 NW12      29.78F FOG     WCI   5
ALTOONA        CLOUDY    23  17  78 NW10      29.81F WCI  12
STATE COLLEGE  PTSUNNY   27  16  63 N7        29.81F
WILLIAMSPORT   CLOUDY    26  12  55 MISG      29.84F
SELINSGROVE    PTSUNNY   27  13  55 N12       29.84S
FT INDIANTOWN  PTSUNNY   26  11  53 NE7       29.81F
CAPITAL CITY   CLOUDY    30  14  51 N8        29.83S
HARRISBURG     PTSUNNY   29  15  56 NW13      29.82S
YORK           MOSUNNY   28  17  63 NW13      29.81S
$$

PAZ038>040-043-044-047-048-054-055-060>062-067>071-271800-
EASTERN PENNSYLVANIA

CITY           SKY/WX    TMP DP  RH WIND       PRES   REMARKS
SCRANTON       CLOUDY    22   7  52 N8        29.77F WCI  12
MOUNT POCONO   CLOUDY    20   3  48 NW20G30   29.64F WCI   4
ALLENTOWN      PTSUNNY   28   4  35 N12       29.75F
QUAKERTOWN*    NOT AVBL
READING        PTSUNNY   28  14  55 NW13G21   29.78F
LANCASTER      PTSUNNY   28  15  58 N9G21     29.79F
COATESVILLE    PTSUNNY   28  19  69 NW14      29.74F
POTTSTOWN      PTSUNNY   28  11  48 NW13      29.76F
BLUE BELL      PTSUNNY   30  16  55 N6        29.73F
DOYLESTOWN     FLURRIES  25  14  63 N12G24    29.71F WCI  14
WILLOW GROVE   NOT AVBL
NORTH PHILA    LGT SNOW  29  20  69 NW16G24   29.74F
PHILADELPHIA   CLOUDY    31  19  61 NW20      29.74F
$$



USA.gov is the U.S. government's official web portal to all federal, state and local government web resources and services.